Stations météo

réclame
Mon MeteoGroup
Koblenz/Falkensteinkaserne, Allemagne (10516): Température de l'air & dewpoint: 16.07.2019 18:00:00 - 22.07.2019 18:00:00 (CEST)Koblenz/Falkensteinkaserne, Allemagne (10516): Vitesse du vent: 16.07.2019 18:00:00 - 22.07.2019 18:00:00 (CEST)Koblenz/Falkensteinkaserne, Allemagne (10516): Direction du vent: 16.07.2019 18:00:00 - 22.07.2019 18:00:00 (CEST)Koblenz/Falkensteinkaserne, Allemagne (10516): reduced air pressure: 16.07.2019 18:00:00 - 22.07.2019 18:00:00 (CEST)Koblenz/Falkensteinkaserne, Allemagne (10516): visibility: 16.07.2019 18:00:00 - 22.07.2019 18:00:00 (CEST)
Date & Time tt [°C] td [°C] ff [km/h] ff [knt] dd ppp [hPa] vv [km]
22.07.2019 18:00:00 30,0 10,7 7 4 NNW 1021,8 -
22.07.2019 17:00:00 29,9 10,7 7 4 NW 1022,1 -
22.07.2019 16:00:00 29,7 10,6 11 6 N 1022,5 -
22.07.2019 15:00:00 28,7 10,6 11 6 NNW 1023,1 -
22.07.2019 14:00:00 27,9 11,1 14 8 NNW 1023,6 -
22.07.2019 13:00:00 26,6 10,9 14 8 NNW 1024,0 -
22.07.2019 12:00:00 25,9 11,4 7 4 N 1024,3 -
22.07.2019 11:00:00 23,9 12,6 7 4 N 1024,5 -
22.07.2019 10:00:00 21,1 12,5 4 2 NNE 1024,8 -
22.07.2019 09:00:00 18,8 12,5 4 2 S 1024,7 -
22.07.2019 08:00:00 16,9 12,7 4 2 W 1024,6 -
22.07.2019 07:00:00 15,8 12,8 4 2 N 1024,4 -
22.07.2019 06:00:00 15,7 12,7 4 2 N 1024,2 -
22.07.2019 05:00:00 16,3 12,9 7 4 N 1024,1 -
22.07.2019 04:00:00 16,3 13,2 4 2 N 1024,1 -
22.07.2019 03:00:00 16,7 13,4 4 2 SW 1024,0 -
22.07.2019 02:00:00 17,7 13,1 4 2 N 1023,8 -
22.07.2019 01:00:00 18,3 13,0 4 2 NNW 1023,9 -
22.07.2019 00:00:00 19,6 13,2 4 2 N 1023,5 -
21.07.2019 23:00:00 20,8 12,2 4 2 NNE 1023,3 -
21.07.2019 22:00:00 23,4 11,7 7 4 N 1022,8 -
21.07.2019 21:00:00 24,5 11,4 11 6 N 1022,0 -
21.07.2019 20:00:00 25,0 11,6 11 6 N 1021,6 -
21.07.2019 19:00:00 26,0 11,2 11 6 N 1021,1 -
21.07.2019 18:00:00 26,4 11,9 14 8 NNW 1021,0 -
21.07.2019 17:00:00 26,6 11,3 14 8 NNW 1020,8 -
21.07.2019 16:00:00 26,6 10,7 14 8 NNW 1020,8 -
21.07.2019 15:00:00 26,2 11,4 11 6 NNW 1020,8 -
21.07.2019 14:00:00 26,3 11,2 11 6 NNW 1020,7 -
21.07.2019 13:00:00 25,4 10,7 11 6 NNW 1020,7 -
21.07.2019 12:00:00 24,6 11,5 11 6 N 1020,6 -
21.07.2019 11:00:00 23,7 11,2 11 6 W 1020,3 -
21.07.2019 10:00:00 22,3 12,1 7 4 W 1020,1 -
21.07.2019 09:00:00 21,1 12,9 7 4 WNW 1019,6 -
21.07.2019 08:00:00 20,0 12,7 7 4 NNW 1019,5 -
21.07.2019 07:00:00 19,0 14,5 4 2 NW 1019,0 -
21.07.2019 06:00:00 18,6 16,0 4 2 N 1018,2 -
21.07.2019 05:00:00 19,3 15,8 4 2 SSW 1017,4 -
21.07.2019 04:00:00 19,5 15,9 4 2 N 1017,0 -
21.07.2019 03:00:00 19,7 15,9 4 2 N 1016,5 -
21.07.2019 02:00:00 19,6 15,7 4 2 N 1016,2 -
21.07.2019 01:00:00 20,9 15,4 4 2 N 1015,7 -
21.07.2019 00:00:00 21,5 15,6 4 2 ENE 1015,5 -
20.07.2019 23:00:00 21,7 14,9 4 2 N 1014,7 -
20.07.2019 22:00:00 22,2 14,5 4 2 ESE 1014,1 -
20.07.2019 21:00:00 23,1 14,5 7 4 N 1013,3 -
20.07.2019 20:00:00 23,8 15,2 18 10 N 1012,9 -
20.07.2019 19:00:00 30,3 11,9 11 6 WSW 1010,4 -
20.07.2019 18:00:00 30,3 11,8 14 8 WSW 1010,1 -
20.07.2019 17:00:00 28,7 16,1 7 4 SSW 1009,8 -
20.07.2019 16:00:00 30,0 12,6 11 6 S 1010,0 -
20.07.2019 15:00:00 30,6 12,5 11 6 S 1010,6 -
20.07.2019 14:00:00 30,9 13,3 11 6 WSW 1011,0 -
20.07.2019 13:00:00 28,1 12,4 14 8 WSW 1011,6 -
20.07.2019 12:00:00 28,0 13,8 11 6 S 1011,6 -
20.07.2019 11:00:00 25,7 14,8 7 4 S 1011,9 -
20.07.2019 10:00:00 23,5 14,4 7 4 SE 1012,1 -
20.07.2019 09:00:00 19,7 13,7 4 2 N 1012,9 -
20.07.2019 08:00:00 18,0 13,8 4 2 N 1013,4 -
20.07.2019 07:00:00 16,4 13,5 7 4 N 1013,3 -
20.07.2019 06:00:00 15,9 13,6 7 4 N 1013,5 -
20.07.2019 05:00:00 15,5 13,7 4 2 N 1014,1 -
20.07.2019 04:00:00 16,1 14,0 4 2 N 1014,1 -
20.07.2019 03:00:00 17,3 13,7 4 2 N 1014,2 -
20.07.2019 02:00:00 18,1 13,8 4 2 N 1014,5 -
20.07.2019 01:00:00 19,1 13,6 4 2 N 1014,7 -
20.07.2019 00:00:00 20,1 13,4 4 2 N 1014,7 -
19.07.2019 23:00:00 20,8 13,0 4 2 SSW 1014,7 -
19.07.2019 22:00:00 22,4 12,5 7 4 SSW 1014,3 -
19.07.2019 21:00:00 23,8 11,1 7 4 WSW 1013,9 -
19.07.2019 20:00:00 25,1 10,3 7 4 WSW 1013,8 -
19.07.2019 19:00:00 24,9 10,0 7 4 NW 1013,8 -
19.07.2019 18:00:00 25,7 10,0 7 4 WNW 1014,0 30
19.07.2019 17:00:00 25,7 10,0 11 6 W 1014,3 30
19.07.2019 16:00:00 25,6 10,3 11 6 SW 1014,4 30
19.07.2019 15:00:00 25,8 8,5 11 6 WSW 1014,5 30
19.07.2019 14:00:00 22,8 13,1 7 4 W 1014,7 25
19.07.2019 13:00:00 21,8 15,1 7 4 W 1015,0 25
19.07.2019 12:00:00 19,1 15,3 7 4 WNW 1015,4 25
19.07.2019 11:00:00 20,2 15,9 7 4 SW 1015,2 25
19.07.2019 10:00:00 18,4 15,4 7 4 SSW 1015,3 15
19.07.2019 09:00:00 17,5 16,0 4 2 N 1015,2 10
19.07.2019 08:00:00 16,9 15,7 4 2 N 1014,9 8
19.07.2019 07:00:00 16,6 15,5 4 2 N 1014,7 8
19.07.2019 06:00:00 16,8 15,6 4 2 N 1014,6 -
19.07.2019 05:00:00 17,1 15,2 4 2 N 1014,2 -
19.07.2019 04:00:00 17,6 15,2 4 2 N 1014,1 -
19.07.2019 03:00:00 17,8 15,1 4 2 N 1013,7 -
19.07.2019 02:00:00 18,4 14,4 4 2 N 1013,7 -
19.07.2019 01:00:00 20,1 12,2 4 2 N 1013,5 -
19.07.2019 00:00:00 20,7 11,3 4 2 W 1013,4 -
18.07.2019 23:00:00 21,6 11,0 4 2 ENE 1012,7 -
18.07.2019 22:00:00 21,7 10,7 4 2 WNW 1012,3 -
18.07.2019 21:00:00 23,3 10,6 7 4 N 1011,6 -
18.07.2019 20:00:00 23,6 11,2 7 4 S 1011,5 -
18.07.2019 19:00:00 23,9 11,2 4 2 S 1011,6 25
18.07.2019 18:00:00 24,9 9,5 7 4 W 1011,5 25
18.07.2019 17:00:00 25,9 9,3 11 6 WNW 1011,3 25
18.07.2019 16:00:00 25,9 9,0 11 6 NNW 1011,1 25
18.07.2019 15:00:00 27,9 8,1 7 4 SSW 1010,6 25
18.07.2019 14:00:00 26,0 9,4 7 4 S 1011,0 25
18.07.2019 13:00:00 25,8 9,6 7 4 S 1011,5 25
18.07.2019 12:00:00 24,5 10,2 7 4 SSW 1012,0 25
18.07.2019 11:00:00 21,4 12,0 7 4 SSW 1012,4 25
18.07.2019 10:00:00 18,8 11,9 7 4 N 1012,9 25
18.07.2019 09:00:00 16,5 11,9 4 2 N 1013,2 25
18.07.2019 08:00:00 14,8 12,1 4 2 SE 1013,1 20
18.07.2019 07:00:00 13,6 12,1 4 2 SW 1013,1 -
18.07.2019 06:00:00 13,0 11,6 4 2 W 1013,3 -
18.07.2019 05:00:00 13,6 11,8 4 2 NW 1013,3 -
18.07.2019 04:00:00 14,3 12,3 4 2 N 1013,6 -
18.07.2019 03:00:00 14,5 12,4 4 2 N 1013,9 -
18.07.2019 02:00:00 14,7 12,4 4 2 N 1013,9 -
18.07.2019 01:00:00 15,3 11,4 4 2 N 1014,1 -
18.07.2019 00:00:00 16,8 11,6 4 2 NNW 1013,9 -
17.07.2019 23:00:00 18,5 12,0 7 4 NNE 1013,8 -
17.07.2019 22:00:00 19,4 11,8 11 6 N 1013,8 -
17.07.2019 21:00:00 20,9 11,7 11 6 N 1013,4 -
17.07.2019 20:00:00 22,0 11,5 11 6 NNW 1013,3 -
17.07.2019 19:00:00 22,7 11,2 14 8 N 1013,3 -
17.07.2019 18:00:00 23,0 11,1 11 6 N 1013,7 -
17.07.2019 17:00:00 22,6 10,8 11 6 N 1014,1 -
17.07.2019 16:00:00 22,4 10,5 11 6 N 1014,6 -
17.07.2019 15:00:00 22,1 10,4 14 8 N 1014,9 -
17.07.2019 14:00:00 21,4 9,4 7 4 N 1015,2 -
17.07.2019 13:00:00 20,8 9,8 7 4 N 1015,6 -
17.07.2019 12:00:00 18,5 10,3 7 4 N 1016,0 -
17.07.2019 11:00:00 17,6 10,6 7 4 NNW 1016,2 -
17.07.2019 10:00:00 16,8 10,8 4 2 NNE 1016,3 -
17.07.2019 09:00:00 14,3 10,5 4 2 N 1016,6 -
17.07.2019 08:00:00 12,8 10,1 4 2 NNW 1016,7 -
17.07.2019 07:00:00 11,6 10,0 4 2 N 1016,9 -
17.07.2019 06:00:00 10,8 9,5 4 2 N 1017,1 -
17.07.2019 05:00:00 11,8 10,3 4 2 SW 1017,0 -
17.07.2019 04:00:00 12,5 10,7 4 2 N 1017,1 -
17.07.2019 03:00:00 12,8 10,8 4 2 N 1017,4 -
17.07.2019 02:00:00 13,4 9,8 4 2 W 1017,5 -
17.07.2019 01:00:00 14,3 10,1 4 2 N 1017,6 -
17.07.2019 00:00:00 15,2 10,5 4 2 WNW 1017,3 -
16.07.2019 23:00:00 16,9 10,4 7 4 NNW 1017,3 -
16.07.2019 22:00:00 18,2 10,0 7 4 NNW 1017,2 -
16.07.2019 21:00:00 19,7 9,3 11 6 NNW 1017,0 -
16.07.2019 20:00:00 21,1 9,2 11 6 N 1017,0 -
16.07.2019 19:00:00 21,6 8,9 11 6 NNW 1016,9 -
16.07.2019 18:00:00 21,4 8,8 11 6 N 1017,2 20

tt = Température de l'air
td = dewpoint
ff = Vitesse du vent
dd = Direction du vent
ppp = reduced air pressure
vv = visibility

stations d'obs. à proximité